Weather in Avignon

France     43°56′36″N   4°48′55″E
temp.,
°C
wind,
m/s
gust,
m/s
humid.,
%
clouds,
%
prec.,
mm/h
press.,
hPa
HPBL,
m
16 may, sun
sun1623:00+12nne1193100 0.0 101314
02:00+12n2292100 0.0 101262
05:00+12ne2298100 1.0 100967
08:00+13wsw1096100 1.8 101066
11:00+15sse1191100 0.8 1010244
14:00+16ssw2288100 0.9 1010415
17:00+16ssw2388100 0.2 1009296
20:00+15wnw5875100 2.5 1010231
17 may, mon
mon1723:00+13w357663 0.0 1012104
02:00+11nw35754 0.0 1014123
05:00+9nw3778100 0.0 1014193
08:00+10nw3671100 0.0 1016245
11:00+15nnw51050100 0.0 10171583
14:00+18nnw7104324 0.0 10172143
17:00+20nnw583783 0.0 10152470
20:00+18n245411 0.0 1016525
18 may, tue
tue1823:00+13wnw34640 0.0 1017117
02:00+11nw36703 0.0 1017180
05:00+9nnw36748 0.0 1018151
08:00+11nw386727 0.0 1018287
11:00+16n565098 0.0 1018811
14:00+19wnw4537100 0.0 10181739
17:00+15w235245 0.1 1017347
20:00+17nw3555100 0.1 1017602
19 may, wed
wed1923:00+13nw410590 0.0 1018374
02:00+13nnw715560 0.0 1018641
05:00+10nw410682 0.0 1019330
08:00+12nnw411662 0.0 1019438
11:00+16nnw574842 0.0 10191512
14:00+19nnw784196 0.0 10172562
17:00+19nnw7103298 0.0 10172769
20:00+14n712585 0.1 10181114
20 may, thu
thu2023:00+11nnw510670 0.0 1021630
02:00+10nnw512705 0.0 1021679
05:00+12n9176225 0.0 10211590
08:00+11n1120713 0.0 10221426
11:00+15n1320600 0.0 10231453
14:00+18n1216440 0.0 10231507
17:00+18n1115476 0.0 10231342
20:00+16n916535 0.0 1023849